Regional Weather Roundup
Issued by NWS

Home | Current Version | Previous Version | Graphics & Text | Print | Product List | Glossary On
Versions: 1 2 3 4 5 6 7 8 9 10 11 12 13 14 15 16 17 18 19 20 21 22 23 24 25 26 27 28 29 30 31 32 33 34 35 36 37 38 39 40 41 42 43 44 45 46 47 48 49 50
000
ASUS43 KFSD 290610
RWRSD

WEATHER ROUNDUP FOR SOUTH DAKOTA
NATIONAL WEATHER SERVICE SIOUX FALLS SD
100 AM CDT SAT APR 29 2017

NOTE: "FAIR" INDICATES FEW OR NO CLOUDS BELOW 12,000 FEET WITH NO
SIGNIFICANT WEATHER AND/OR OBSTRUCTIONS TO VISIBILITY.


SDZ001>005-009-010-012>017-290700-
NORTHWEST AND NORTH CENTRAL SOUTH DAKOTA

CITY           SKY/WX    TMP DP  RH WIND       PRES   REMARKS
BUFFALO          N/A     40  26  57 SW3       30.13S
FAITH            N/A     44  15  31 CALM      30.20S
MOBRIDGE       PTCLDY    32  16  51 CALM      30.19R
$$

SDZ012>016-024>037-041>051-057-063-072>074-290700-
SOUTHWEST AND SOUTH CENTRAL SOUTH DAKOTA

CITY           SKY/WX    TMP DP  RH WIND       PRES   REMARKS
RAPID CTY ARPT CLOUDY    36  20  52 CALM      30.19S
PIERRE         CLOUDY    39  18  42 SE3       30.20R
CUSTER         CLOUDY    29  22  75 NE7       30.14F WCI  22
ELLSWORTH AFB  PTCLDY    40  25  55 CALM      30.18F
PHILIP         CLOUDY    33  27  78 W3        30.20S
PINE RIDGE     MOCLDY    38  26  62 NE9       30.14F
SPEARFISH      FAIR      34  27  75 SW6       30.19S WCI  29
WINNER         MOCLDY    39  25  57 NE7       30.20R
$$

SDZ004>011-016>023-039-040-290700-
NORTHEAST SOUTH DAKOTA

CITY           SKY/WX    TMP DP  RH WIND       PRES   REMARKS
ABERDEEN       CLEAR     35  23  61 NW3       30.21R
WATERTOWN      CLEAR     32  20  61 N5        30.16R WCI  27
BROOKINGS      CLOUDY    37  24  59 N8        30.16R
SISSETON         N/A     31  24  75 NW5       30.19R WCI  26
$$

SDZ017-020-022-023-036>040-048>070-290700-
SOUTHEAST SOUTH DAKOTA

CITY           SKY/WX    TMP DP  RH WIND       PRES   REMARKS
SIOUX FALLS    CLOUDY    37  27  67 N7        30.15R
HURON          PTCLDY    28  21  75 CALM      30.20R
CHAMBERLAIN    PTCLDY    43  24  46 N3        30.20R
MITCHELL       CLOUDY    34  24  67 NW3       30.20R
YANKTON        CLOUDY    43  27  52 N8        30.16R
$$

ABBREVIATIONS USED IN REMARKS
   TC - TEMPERATURE IN CELSIUS
  WCI - WIND CHILL INDEX
   HX - HEAT INDEX
  VSB - VISIBILITY




USA.gov is the U.S. government's official web portal to all federal, state and local government web resources and services.